timestamp,surface_pressure_avg,surface_temp_avg,battery_voltage,lat,long
2024-02-10 00:09:00+00:00,347.8229,0.99,10.9,47.84626,-54.09684
2024-02-10 00:19:00+00:00,346.6461,0.94,10.9,47.84626,-54.09684
2024-02-10 00:29:00+00:00,345.0396,0.95,10.9,47.84626,-54.09684
2024-02-10 00:39:00+00:00,339.583,0.94,10.9,47.84626,-54.09684
2024-02-10 00:49:00+00:00,337.7029,0.94,10.9,47.84626,-54.09684
2024-02-10 00:59:00+00:00,340.5196,0.96,10.9,47.84626,-54.09684
2024-02-10 01:09:00+00:00,336.6979,0.93,10.9,47.84626,-54.09684
2024-02-10 01:19:00+00:00,326.7946,0.9,10.9,47.84626,-54.09684
2024-02-10 01:29:00+00:00,322.5397,0.9,10.9,47.84626,-54.09684
2024-02-10 01:39:00+00:00,318.2746,0.9,10.9,47.84626,-54.09684
2024-02-10 01:49:00+00:00,309.8314,0.9,10.9,47.84626,-54.09684
2024-02-10 01:59:00+00:00,299.403,0.9,10.9,47.84626,-54.09684
2024-02-10 02:09:00+00:00,294.0731,0.9,10.9,47.84626,-54.09684
2024-02-10 14:19:00+00:00,353.1063,0.9,10.9,47.84626,-54.09684
2024-02-10 14:29:00+00:00,340.168,0.88,10.9,47.84626,-54.09684
2024-02-10 14:39:00+00:00,333.9463,0.9,10.9,47.84626,-54.09684
2024-02-10 14:49:00+00:00,322.723,0.9,10.9,47.84626,-54.09684
2024-02-10 14:59:00+00:00,307.7647,0.9,10.9,47.84626,-54.09684
2024-02-10 15:09:00+00:00,299.0314,0.9,10.9,47.84626,-54.09684
2024-02-10 15:19:00+00:00,289.3097,0.9,10.98,47.84626,-54.09684
2024-02-10 15:29:00+00:00,274.5481,0.94,10.98,47.84626,-54.09684
2024-02-10 15:39:00+00:00,261.6764,0.9,10.98,47.84626,-54.09684
2024-02-10 15:49:00+00:00,250.6481,0.91,10.98,47.84626,-54.09684
2024-02-10 15:59:00+00:00,239.0581,0.9,10.98,47.84626,-54.09684
2024-02-10 16:09:00+00:00,227.5297,0.9,10.98,47.84626,-54.09684
2024-02-10 16:19:00+00:00,220.8031,0.9,11.14,47.84626,-54.09684
2024-02-10 16:29:00+00:00,213.3665,0.9,11.14,47.84626,-54.09684
2024-02-10 16:39:00+00:00,204.1364,0.9,11.14,47.84626,-54.09684
2024-02-10 16:49:00+00:00,199.1314,0.9,11.14,47.84626,-54.09684
2024-02-10 16:59:00+00:00,195.7665,0.9,11.14,47.84626,-54.09684
2024-02-10 17:09:00+00:00,189.1965,0.9,11.14,47.84626,-54.09684
2024-02-10 17:19:00+00:00,183.1914,0.9,11.37,47.84626,-54.09684
2024-02-10 17:29:00+00:00,180.9382,0.9,11.37,47.84626,-54.09684
2024-02-10 17:39:00+00:00,179.9065,0.9,11.37,47.84626,-54.09684
2024-02-10 17:49:00+00:00,175.5531,0.9,11.37,47.84626,-54.09684
2024-02-10 17:59:00+00:00,172.6081,0.95,11.37,47.84626,-54.09684
2024-02-10 18:09:00+00:00,174.5364,1.0,11.37,47.84626,-54.09684
2024-02-10 18:19:00+00:00,174.4649,1.0,11.3,47.84626,-54.09684
2024-02-10 18:29:00+00:00,173.9832,1.0,11.3,47.84626,-54.09684
2024-02-10 18:39:00+00:00,177.7332,1.03,11.3,47.84626,-54.09684
2024-02-10 18:49:00+00:00,179.5731,1.06,11.3,47.84626,-54.09684
2024-02-10 18:59:00+00:00,177.1614,1.09,11.3,47.84626,-54.09684
2024-02-10 19:09:00+00:00,179.4932,1.08,11.3,47.84626,-54.09684
2024-02-10 19:19:00+00:00,183.1414,1.08,11.06,47.84626,-54.09684
2024-02-10 19:29:00+00:00,184.4132,1.09,11.06,47.84626,-54.09684
2024-02-10 19:39:00+00:00,187.0915,1.09,11.06,47.84626,-54.09684
2024-02-10 19:49:00+00:00,192.7898,1.09,11.06,47.84626,-54.09684
2024-02-10 19:59:00+00:00,198.6298,1.09,11.06,47.84626,-54.09684
2024-02-10 20:09:00+00:00,201.3448,1.09,11.06,47.84626,-54.09684
2024-02-10 20:19:00+00:00,205.8198,1.09,10.98,47.84626,-54.09684
2024-02-10 20:29:00+00:00,215.1214,1.09,10.98,47.84626,-54.09684
2024-02-10 20:39:00+00:00,222.9631,1.1,10.98,47.84626,-54.09684
2024-02-10 20:49:00+00:00,224.6431,1.1,10.98,47.84626,-54.09684
2024-02-10 20:59:00+00:00,228.5731,1.1,10.98,47.84626,-54.09684
2024-02-10 21:09:00+00:00,238.5231,1.1,10.98,47.84626,-54.09684
2024-02-10 21:19:00+00:00,249.1531,1.1,10.9,47.84626,-54.09684
2024-02-10 21:29:00+00:00,253.5381,1.1,10.9,47.84626,-54.09684
2024-02-10 21:39:00+00:00,259.7514,1.1,10.9,47.84626,-54.09684
2024-02-10 21:49:00+00:00,268.8048,1.1,10.9,47.84626,-54.09684
2024-02-10 21:59:00+00:00,279.2414,1.1,10.9,47.84626,-54.09684
2024-02-10 22:09:00+00:00,285.028,1.08,10.9,47.84626,-54.09684
